[Date Prev][Date Next][Thread Prev][Thread Next] - [Date Index][Thread Index][Author Index]

2 Line ISS Keps 5-5



ISS
1 25544U 98067A   03125.16594627 -.00012674  00000-0 -15354-3 0  9736
2 25544  51.6338 236.4050 0006411  82.2451 356.2426 15.58962733254291


----
Via the sarex mailing list at AMSAT.ORG courtesy of AMSAT-NA.
To unsubscribe, send "unsubscribe sarex" to Majordomo@amsat.org



AMSAT Top AMSAT Home